weather.gov     
National Weather Service

Regional Weather Roundup
NWS Homepage
This page is being discontinued on March 12, 2014.
The same data is available at this site. Please update your bookmarks.
Thank you, and we apologize for the inconvenience.
Please send an email to SR-SRH.Webmaster@noaa.gov with any concerns.


Current Version
Previous Version:    01  02  03  04  05  06  07  08  09  10  11  12  13  14  15  16  17  18  19  20  21  22  23  24  25  26  
[Printable]
673
ASUS41 KBOX 200910
RWRBOX

REGIONAL WEATHER ROUNDUP
NATIONAL WEATHER SERVICE TAUNTON MA
400 AM EST SAT DEC 20 2014

NOTE:  "FAIR" INDICATES FEW OR NO CLOUDS BELOW 12,000 FEET WITH NO
SIGNIFICANT WEATHER AND/OR OBSTRUCTIONS TO VISIBILITY.  THE FOLLOWING
OBSERVATION LOCATIONS DO NOT REPORT PRESENT WEATHER...PROVINCETOWN...
SMITHFIELD...BLOCK ISLAND...KEENE...AND OXFORD.

MAZALL-201000-
EASTERN MASSACHUSETTS

CITY           SKY/WX    TMP DP  RH WIND       PRES   REMARKS
BOSTON         CLEAR     28  20  71 N9        30.20R WCI  19
BEVERLY        CLEAR     26  19  74 N6        30.19R WCI  19
LAWRENCE       CLEAR     24  19  81 CALM      30.22R
BEDFORD        CLEAR     22  19  89 NW3       30.19R
BLUE HILL        N/A     24  20  84 N12       30.14S WCI  13
NORWOOD        MOCLDY    24  21  88 CALM      30.19R
MARSHFIELD     CLOUDY    34  28  80 NW8       30.19R WCI  27
PLYMOUTH       CLOUDY    30  24  78 NW6       30.17S WCI  24
TAUNTON        CLOUDY    30  22  72 CALM      30.17S
NEW BEDFORD    CLOUDY    29  23  78 CALM      30.17R
$$

MAZALL-201000-
CAPE COD AND THE ISLANDS

CITY           SKY/WX    TMP DP  RH WIND       PRES   REMARKS
FALMOUTH       MIX PCPN  32  25  74 NW6       30.16R WCI  26
HYANNIS        CLOUDY    33  28  81 W6        30.14S WCI  28
CHATHAM        CLOUDY    36  31  82 VRB3      30.15R
PROVINCETOWN   CLOUDY    37  27  65 N12G17    30.16S WCI  30
NANTUCKET      CLOUDY    37  30  75 N8        30.15R WCI  31
MARTHAS VNYRD  CLOUDY    33  23  66 N3        30.15S
$$

MAZALL-201000-
CENTRAL AND WESTERN MASSACHUSETTS

CITY           SKY/WX    TMP DP  RH WIND       PRES   REMARKS
WORCESTER      CLEAR     24  19  81 N7        30.14R WCI  16
FITCHBURG      CLEAR     23  18  81 NW3       30.20R
ORANGE         CLEAR     22  17  81 N6        30.18S WCI  14
SPRINGFIELD    CLEAR     24  17  77 N6        30.19S WCI  16
WESTFIELD      CLEAR     23  18  81 N7        30.20R WCI  15
NORTH ADAMS    CLOUDY    21  16  81 W5        30.20S WCI  15
PITTSFIELD     CLEAR     18  13  80 W5        30.13F WCI  11
$$

RIZALL-201000-
RHODE ISLAND

CITY           SKY/WX    TMP DP  RH WIND       PRES   REMARKS
PROVIDENCE     CLOUDY    28  21  75 N9        30.18S WCI  19
NEWPORT        CLOUDY    29  21  72 N9        30.16S WCI  20
BLOCK ISLAND   CLOUDY    30  19  64 N8        30.16S WCI  23
SMITHFIELD     CLOUDY    27  16  63 N10       30.15S WCI  17
WESTERLY       CLEAR     26  21  81 N5        30.19R WCI  20
$$

CTZALL-201000-
CONNECTICUT

CITY           SKY/WX    TMP DP  RH WIND       PRES   REMARKS
BRADLEY INTL   CLEAR     25  17  72 N8        30.19S WCI  16
HARTFORD       CLEAR     27  18  69 N9        30.21R WCI  18
BRIDGEPORT     CLOUDY    31  21  66 NW7       30.21R WCI  24
DANBURY        CLOUDY    28  18  66 VRB6      30.20R WCI  22
GROTON         CLEAR     26  21  81 N8        30.18S WCI  18
NEW HAVEN      PTCLDY    30  19  63 N5        30.20R WCI  25
CHESTER        FAIR      28  21  74 N6        30.17S WCI  22
MERIDEN        CLEAR     27  20  75 N7        30.20R WCI  19
WILLIMANTIC    CLEAR     24  19  81 CALM      30.19S
OXFORD         CLOUDY    27  16  63 N7        30.17R WCI  19
$$

MEZ002-015-021-024-NHZ003-005-008-011-012-014-VTZ005-008-201000-
NORTHERN NEW ENGLAND

CITY           SKY/WX    TMP DP  RH WIND       PRES   REMARKS
PORTLAND ME    CLEAR     25  17  72 N7        30.21F WCI  17
BANGOR ME      CLEAR     15  12  88 N5        30.22R WCI   8
CONCORD NH     CLEAR     21  16  81 NW3       30.20S
MANCHESTER NH  CLEAR     24  18  77 N7        30.19S WCI  16
NASHUA NH      CLEAR     22  19  88 CALM      30.21R
PORTSMOUTH NH  CLEAR     24  19  84 N5        30.19S WCI  18
JAFFREY NH     CLEAR     18  15  88 CALM      30.15S
KEENE NH       CLEAR     21  16  79 CALM      30.20S
BURLINGTON VT  PTCLDY    13   8  81 E5        30.26S WCI   5
MT. WASHINGTON PTCLDY    23   0  36 NE17        N/A  WCI   9
$$

NYZ052-076-201000-
EASTERN NEW YORK

CITY           SKY/WX    TMP DP  RH WIND       PRES   REMARKS
ALBANY         CLOUDY    26  17  68 N8        30.24F WCI  18
NEW YORK CITY  CLOUDY    31  21  66 N8        30.22R WCI  23
$$

ANZALL-201000-
MARINE OBSERVATIONS

STATION/POSITION TIME  TEMP    WIND        PRES    VSBY  WAVE
                       AIR SEA DIR/SP/G                  HT/PER
                 (UTC) (F)     (DEG/KT/KT) (MB)    (MI)  (FT/S)
BOSTON BUOY      0850   35 45   10/ 17/ 19 1021.5F         3/ 5
BUZZARDS BAY     0800          350/ 11/ 12 1021.8R
NANTUCKET SOUND  0850   37 42  340/ 12/ 14 1020.7R         2/ 3
MASS BAY-STELLWA 0804   34 45  330/ 16/ 17   N/A    1 7/8  2/ 5
ISLE OF SHOALS   0900   32      30/ 17/ 20 1021.5F
S OF BLOCK IS    0808      52                N/A           2/ 5
$$

......................KEY.........................
  SKY/WX - SKY CONDITION/PRESENT WEATHER
  TMP    - TEMPERATURE IN FAHRENHEIT
  DWPT   - DEWPOINT IN FAHRENHEIT
  RH     - RELATIVE HUMIDITY IN PERCENT
  WIND   - DIRECTION AND SPEED IN MPH
  PRES   - MEAN SEA LEVEL PRESSURE IN INCHES OF HG
  WCI    - WIND CHILL INDEX
  VSB    - VISIBILITY IN MILES
  HX     - HEAT INDEX
  TC     - TEMPERATURE IN CELSIUS
  VRB    - VARIABLE WIND DIRECTION
  N/A    - NOT AVAILABLE




U.S. Dept. of Commerce
NOAA National Weather Service
1325 East West Highway
Silver Spring, MD 20910
E-mail: w-nws.webmaster@noaa.gov
Page last modified: May 16, 2007
NATIONAL WEATHER SERVICE: for Safety, for Work, for Fun - FOR LIFE